{"data":{"norad_id":68892,"epoch":"2026-09-20T03:45:56.573856Z","epoch_age_seconds":45019,"freshness":"FRESH","line1":"1 68892U 26095AE  26263.15690479 -.00000407  00000+0 -24451-4 0  9997","line2":"2 68892  51.8949 180.6870 0000702  58.6113 301.4918 14.79926825 21815","mean_motion":14.79926825,"eccentricity":7.02e-5,"inclination_deg":51.8949,"raan_deg":180.687,"arg_perigee_deg":58.6113,"mean_anomaly_deg":301.4918,"bstar":-2.4451e-5,"rev_number":2181,"period_min":97.302108163355,"perigee_km":629.06318220063,"apogee_km":630.04706217458,"semimajor_km":7007.6921221876,"source":"CELESTRAK","updated_at":"2026-09-20T09:00:24.542812Z"}}